Location: site
(53.0000°N, 23.0500°E)
Time: 17:32:41
(UTC+01:00)

SAOCOM 1-A - Pass Details

Date: 23 January 2020
Orbit: 621 x 623 km, 97.9° (Epoch: 25 February)

Event Time Altitude Azimuth Distance (km) Brightness Sun altitude
Exits shadow 19:02:21 11° 355° (N) 1,915 ? -27.8°
Maximum altitude 19:05:51 29° 297° (WNW) 1,155 ? -28.3°
Drops below altitude 10° 19:09:35 10° 238° (WSW) 1,993 ? -28.9°
Sets 19:11:58 0° 227° (SW) 2,895 ? -29.2°
